Back to catalog

STARLINK-34547

AliveCommunicationsVLEO
NORAD 64777·PAYLOAD·🇺🇸 United States

Launched Jul 8, 2025 from Cape Canaveral Space Force Station

Loading…

Next Passes (next 24 hours)

TLE

FreshSource: CelesTrak SupGP

Epoch: Sep 14, 2026, 22:52 UTC

1 64777C 25147Y   26257.95326389  .00031122  00000+0  91985-3 0  2577
2 64777  53.1580  79.3858 0001201  83.3695 103.2202 15.34363262    19

Track STARLINK-34547 in real time with AllMySat

Download on the App Store